FW8707 Weather Reports


Display with metric or nautical units.
time (UTC)temp
F
wind
direction
speed
MPH
gust
MPH
rain 1hr
in
rain 24hr
in
rain mn
in
humidity
%
barometer
mb
20260510051521 49 285 0.0 4.0 0.06 0.06 0.06 83 1023.5
20260510051012 49 285 0.0 4.0 0.06 0.06 0.06 82 1023.4
20260510050506 49 285 1.0 4.0 0.06 0.06 0.06 82 1023.3
20260510050022 49 286 0.0 4.0 0.05 0.05 0.05 81 1023.4
20260510045507 50 285 0.0 3.0 0.05 0.05 0.05 80 1023.5
20260510045007 50 282 0.0 1.0 0.05 0.05 0.05 78 1023.6
20260510044511 51 282 0.0 1.0 0.03 0.03 0.03 77 1023.5
20260510043506 52 283 0.0 1.0 0.00 0.00 0.00 72 1023.5
20260510043017 52 283 0.0 1.0 0.00 0.00 0.00 68 1023.5
20260510042509 52 283 0.0 0.0 0.00 0.00 0.00 67 1023.5
20260510042009 52 283 0.0 0.0 0.00 0.00 0.00 66 1023.6
20260510041520 52 285 0.0 1.0 0.00 0.00 0.00 65 1023.6
20260510041017 52 270 0.0 1.0 0.00 0.00 0.00 65 1023.5
20260510040509 52 270 0.0 1.0 0.00 0.00 0.00 66 1023.3
20260510040022 52 287 0.0 4.0 0.00 0.00 0.00 66 1023.0
20260510035508 52 287 0.0 4.0 0.00 0.00 0.00 66 1022.9
20260510035013 52 284 0.0 4.0 0.00 0.00 0.00 66 1022.8
20260510034523 52 283 0.0 7.0 0.00 0.00 0.00 66 1022.6
20260510034004 52 270 0.0 7.0 0.00 0.00 0.00 66 1022.4
20260510033507 52 270 0.0 5.0 0.00 0.00 0.00 66 1022.2
20260510033014 52 270 0.0 7.0 0.00 0.00 0.00 66 1022.2
20260510032508 52 282 1.0 7.0 0.00 0.00 0.00 66 1022.2
20260510032012 52 279 1.0 5.0 0.00 0.00 0.00 66 1022.3
20260510031524 51 283 0.0 8.0 0.00 0.00 0.00 66 1022.3
20260510031009 51 280 0.0 8.0 0.00 0.00 0.00 66 1022.1
20260510030512 51 285 1.0 8.0 0.00 0.00 0.00 66 1022.1
20260510030023 51 283 2.0 8.0 0.00 0.00 0.00 66 1022.1
20260510025515 51 279 2.0 7.0 0.00 0.00 0.00 66 1021.7
20260510025015 51 280 2.0 10.0 0.00 0.00 0.00 66 1021.6
20260510024525 51 281 2.0 10.0 0.00 0.00 0.00 66 1021.4
20260510024010 51 283 1.0 10.0 0.00 0.00 0.00 66 1021.1
20260510023510 52 270 1.0 12.0 0.00 0.00 0.00 66 1021.0
20260510023023 52 270 3.0 12.0 0.00 0.00 0.00 65 1020.8
20260510022509 52 270 3.0 15.0 0.00 0.00 0.00 65 1020.4
20260510022007 52 270 4.0 15.0 0.00 0.00 0.00 65 1020.5
20260510021524 52 270 3.0 11.0 0.00 0.00 0.00 65 1020.6
20260510021009 52 270 3.0 15.0 0.00 0.00 0.00 65 1020.5
20260510020510 52 270 5.0 15.0 0.00 0.00 0.00 64 1020.2
20260510020029 52 270 5.0 20.0 0.00 0.00 0.00 64 1020.0
20260510015508 53 270 5.0 20.0 0.00 0.00 0.00 64 1020.3
20260510015012 53 270 4.0 14.0 0.00 0.00 0.00 64 1020.0
20260510014009 53 270 5.0 18.0 0.00 0.00 0.00 64 1019.4
20260510013511 53 270 5.0 17.0 0.00 0.00 0.00 63 1019.5
20260510013022 53 270 8.0 16.0 0.00 0.00 0.00 63 1019.5
20260510012510 54 270 7.0 18.0 0.00 0.00 0.00 63 1019.4
20260510012010 54 270 8.0 18.0 0.00 0.00 0.00 64 1019.4
20260510011522 54 270 5.0 19.0 0.00 0.00 0.00 65 1019.0
20260510011007 54 270 8.0 19.0 0.00 0.00 0.00 64 1018.1
20260510010508 54 270 8.0 19.0 0.00 0.00 0.00 64 1018.4
20260510010019 55 270 6.0 16.0 0.00 0.00 0.00 63 1018.1
20260510005511 55 270 5.0 17.0 0.00 0.00 0.00 63 1017.8
20260510005013 55 270 7.0 18.0 0.00 0.00 0.00 62 1018.0
20260510004008 55 270 7.0 21.0 0.00 0.00 0.00 62 1017.6
20260510002509 56 270 6.0 27.0 0.00 0.00 0.00 61 1016.9
20260510002011 56 270 10.0 27.0 0.00 0.00 0.00 60 1016.7
20260510001524 56 270 7.0 26.0 0.00 0.00 0.00 60 1016.5
20260510001012 57 270 9.0 26.0 0.00 0.00 0.00 59 1016.3
20260510000511 57 270 10.0 26.0 0.00 0.00 0.00 58 1016.1
20260510000027 58 270 10.0 26.0 0.00 0.00 0.00 56 1016.1
20260509235509 59 270 7.0 23.0 0.00 0.00 0.00 54 1015.8
20260509235011 61 286 10.0 23.0 0.00 0.00 0.00 51 1015.5
20260509233511 71 92 3.0 10.0 0.00 0.00 0.00 31 1014.3
20260509233026 71 48 3.0 9.0 0.00 0.00 0.00 31 1013.8
20260509231010 71 52 1.0 8.0 0.00 0.00 0.00 30 1013.3
20260509230510 71 47 2.0 8.0 0.00 0.00 0.00 31 1013.3
20260509230026 71 54 2.0 7.0 0.00 0.00 0.00 32 1013.1
20260509225509 71 62 3.0 8.0 0.00 0.00 0.00 32 1013.1
20260509225010 71 74 3.0 8.0 0.00 0.00 0.00 31 1013.1
20260509224518 72 48 3.0 8.0 0.00 0.00 0.00 30 1013.0
20260509223510 72 66 3.0 8.0 0.00 0.00 0.00 30 1012.9
20260509222508 73 204 1.0 5.0 0.00 0.00 0.00 29 1013.1
20260509222011 73 283 1.0 7.0 0.00 0.00 0.00 30 1013.1
20260509221522 72 281 1.0 7.0 0.00 0.00 0.00 29 1013.0
20260509221009 73 282 3.0 7.0 0.00 0.00 0.00 30 1013.0
20260509220512 73 282 2.0 9.0 0.00 0.00 0.00 31 1013.0
20260509220035 73 287 4.0 10.0 0.00 0.00 0.00 29 1013.1
20260509215515 73 283 2.0 10.0 0.00 0.00 0.00 28 1013.2
20260509215008 73 282 5.0 10.0 0.00 0.00 0.00 30 1013.2
20260509214526 73 281 2.0 11.0 0.00 0.00 0.00 29 1013.2
20260509214010 73 282 3.0 11.0 0.00 0.00 0.00 29 1013.3
20260509213510 73 57 4.0 10.0 0.00 0.00 0.00 28 1013.3
20260509213021 73 233 3.0 12.0 0.00 0.00 0.00 28 1013.3
20260509212510 73 44 5.0 12.0 0.00 0.00 0.00 28 1013.3
20260509212012 73 26 2.0 11.0 0.00 0.00 0.00 28 1013.3
20260509211524 74 79 5.0 11.0 0.00 0.00 0.00 28 1013.4
20260509211008 74 12 3.0 11.0 0.00 0.00 0.00 26 1013.5
20260509210511 74 79 5.0 11.0 0.00 0.00 0.00 28 1013.5
20260509210024 74 69 4.0 9.0 0.00 0.00 0.00 26 1013.4
20260509205511 74 352 1.0 9.0 0.00 0.00 0.00 27 1013.3
20260509205010 75 54 5.0 9.0 0.00 0.00 0.00 26 1013.4
20260509204006 75 223 2.0 9.0 0.00 0.00 0.00 27 1013.4
20260509203511 76 67 2.0 9.0 0.00 0.00 0.00 19 1013.4
20260509203029 76 64 2.0 10.0 0.00 0.00 0.00 18 1013.4
20260509202508 77 87 4.0 10.0 0.00 0.00 0.00 18 1013.4
20260509202007 77 61 5.0 9.0 0.00 0.00 0.00 19 1013.4
20260509201007 76 57 4.0 9.0 0.00 0.00 0.00 22 1013.6
20260509200026 77 50 6.0 11.0 0.00 0.00 0.00 18 1013.7
20260509195511 76 63 3.0 11.0 0.00 0.00 0.00 21 1013.6
20260509195009 77 56 5.0 11.0 0.00 0.00 0.00 19 1013.5
20260509194541 77 64 5.0 11.0 0.00 0.00 0.00 18 1013.5
20260509194013 78 248 2.0 15.0 0.00 0.00 0.00 17 1013.5
20260509193511 78 82 5.0 16.0 0.00 0.00 0.00 17 1013.5
20260509192509 78 52 4.0 16.0 0.00 0.00 0.00 19 1013.3
20260509191012 78 252 5.0 11.0 0.00 0.00 0.00 20 1013.3
20260509190509 78 70 4.0 12.0 0.00 0.00 0.00 20 1013.4
20260509185008 77 283 5.0 11.0 0.00 0.00 0.00 21 1013.4
20260509184526 77 108 6.0 11.0 0.00 0.00 0.00 20 1013.4
20260509184009 77 198 6.0 11.0 0.00 0.00 0.00 19 1013.4
20260509183510 77 317 4.0 10.0 0.00 0.00 0.00 21 1013.4
20260509183026 77 58 5.0 10.0 0.00 0.00 0.00 19 1013.4
20260509182511 77 90 2.0 10.0 0.00 0.00 0.00 20 1013.4
20260509182015 77 67 6.0 10.0 0.00 0.00 0.00 19 1013.4
20260509181011 76 69 4.0 10.0 0.00 0.00 0.00 22 1013.6
20260509180514 77 47 5.0 10.0 0.00 0.00 0.00 21 1013.7
20260509175510 77 73 4.0 8.0 0.00 0.00 0.00 20 1013.7
20260509175009 78 67 3.0 8.0 0.00 0.00 0.00 20 1013.7
20260509173509 77 91 5.0 10.0 0.00 0.00 0.00 20 1013.6
20260509173024 77 83 6.0 10.0 0.00 0.00 0.00 20 1013.6
20260509172512 77 30 5.0 11.0 0.00 0.00 0.00 22 1013.6
20260509172016 77 275 3.0 11.0 0.00 0.00 0.00 23 1013.5
20260509171537 76 63 3.0 9.0 0.00 0.00 0.00 23 1013.6
20260509171008 76 53 5.0 9.0 0.00 0.00 0.00 23 1013.6
20260509162513 75 46 4.0 11.0 0.00 0.00 0.00 21 1013.5
20260509162012 75 66 4.0 11.0 0.00 0.00 0.00 22 1013.4
20260509161532 75 53 2.0 7.0 0.00 0.00 0.00 22 1013.4
20260509161012 75 57 2.0 8.0 0.00 0.00 0.00 22 1013.5
20260509160508 74 26 2.0 8.0 0.00 0.00 0.00 21 1013.4
20260509160028 74 289 2.0 8.0 0.00 0.00 0.00 23 1013.5
20260509155009 74 300 3.0 8.0 0.00 0.00 0.00 22 1013.4
20260509154006 73 329 1.0 11.0 0.00 0.00 0.00 24 1013.5
20260509153507 72 299 3.0 11.0 0.00 0.00 0.00 23 1013.6
20260509151017 72 281 1.0 6.0 0.00 0.00 0.00 22 1013.7
20260509150511 72 324 2.0 7.0 0.00 0.00 0.00 24 1013.7
20260509150037 72 70 1.0 7.0 0.00 0.00 0.00 25 1013.6
20260509145510 71 329 1.0 5.0 0.00 0.00 0.00 21 1013.6
20260509145011 71 322 2.0 6.0 0.00 0.00 0.00 23 1013.6
20260509144528 71 9 2.0 10.0 0.00 0.00 0.00 24 1013.7
20260509144012 70 322 3.0 10.0 0.00 0.00 0.00 25 1013.7
20260509135508 65 244 2.0 10.0 0.00 0.00 0.00 35 1013.5
20260509135017 64 254 2.0 6.0 0.00 0.00 0.00 36 1013.5
20260509134524 62 350 1.0 8.0 0.00 0.00 0.00 37 1013.5
20260509134009 61 302 1.0 8.0 0.00 0.00 0.00 41 1013.5
20260509133509 59 283 2.0 8.0 0.00 0.00 0.00 42 1013.6
20260509133024 58 298 1.0 4.0 0.00 0.00 0.00 44 1013.4
20260509132511 56 292 1.0 4.0 0.00 0.00 0.00 47 1013.3
20260509132010 55 270 0.0 4.0 0.00 0.00 0.00 58 1013.4
20260509131525 54 270 0.0 4.0 0.00 0.00 0.00 53 1013.4
20260509131010 53 270 0.0 8.0 0.00 0.00 0.00 56 1013.4
20260509130508 52 270 1.0 9.0 0.00 0.00 0.00 50 1013.4
20260509130025 51 270 2.0 9.0 0.00 0.00 0.00 56 1013.2
20260509125514 50 270 0.0 2.0 0.00 0.00 0.00 63 1013.3
20260509125008 50 282 0.0 1.0 0.00 0.00 0.00 67 1013.2
20260509124525 50 281 0.0 1.0 0.00 0.00 0.00 67 1013.1
20260509124009 50 283 0.0 1.0 0.00 0.00 0.00 68 1013.1
20260509123509 50 270 0.0 3.0 0.00 0.00 0.00 67 1013.1
20260509123025 50 270 0.0 3.0 0.00 0.00 0.00 63 1013.0
20260509122510 50 270 0.0 2.0 0.00 0.00 0.00 60 1012.9
20260509122010 50 279 0.0 2.0 0.00 0.00 0.00 62 1012.8
20260509121520 50 279 0.0 2.0 0.00 0.00 0.00 62 1012.8
20260509121012 50 280 0.0 2.0 0.00 0.00 0.00 63 1012.7
20260509120514 50 281 0.0 2.0 0.00 0.00 0.00 63 1012.7
20260509120030 50 283 0.0 1.0 0.00 0.00 0.00 63 1012.7
20260509115511 50 283 0.0 3.0 0.00 0.00 0.00 63 1012.8
20260509115010 51 270 0.0 3.0 0.00 0.01 0.00 64 1012.9
20260509114513 50 270 0.0 3.0 0.00 0.01 0.00 59 1012.6
20260509112508 49 270 1.0 5.0 0.00 0.01 0.00 64 1012.3
20260509112008 49 285 1.0 5.0 0.00 0.01 0.00 65 1012.2
20260509111521 48 279 0.0 5.0 0.00 0.01 0.00 66 1012.1
20260509111011 48 287 0.0 5.0 0.00 0.01 0.00 68 1011.9
20260509110509 48 275 1.0 5.0 0.00 0.01 0.00 67 1011.9
20260509110026 47 279 0.0 4.0 0.00 0.01 0.00 70 1011.9
20260509104510 48 279 0.0 1.0 0.00 0.01 0.00 72 1011.9
20260509104007 48 279 0.0 1.0 0.00 0.01 0.00 73 1012.0
20260509103505 48 279 0.0 2.0 0.00 0.01 0.00 72 1012.0
20260509103013 48 279 0.0 2.0 0.00 0.01 0.00 72 1011.9
20260509102506 48 279 0.0 2.0 0.00 0.01 0.00 72 1011.9
20260509102009 49 279 0.0 2.0 0.00 0.01 0.00 71 1011.9
20260509101520 49 279 0.0 3.0 0.00 0.01 0.00 71 1011.9
20260509101010 49 279 0.0 3.0 0.00 0.01 0.00 71 1011.9
20260509100508 49 286 0.0 2.0 0.00 0.01 0.00 71 1011.9
20260509100024 49 287 0.0 2.0 0.00 0.01 0.00 70 1012.0
20260509095515 49 287 0.0 3.0 0.00 0.01 0.00 70 1011.9
20260509095008 49 287 0.0 3.0 0.00 0.01 0.00 69 1011.9
20260509094526 50 275 0.0 2.0 0.00 0.01 0.00 70 1011.8
20260509093012 50 279 0.0 2.0 0.00 0.01 0.00 72 1011.8
20260509092506 50 279 1.0 2.0 0.00 0.01 0.00 72 1011.8
20260509092012 50 279 0.0 2.0 0.00 0.01 0.00 69 1011.8
20260509091515 50 279 0.0 2.0 0.00 0.01 0.00 68 1011.8
20260509091006 50 279 0.0 3.0 0.00 0.01 0.00 69 1011.8
20260509090508 51 279 0.0 4.0 0.00 0.01 0.00 68 1011.9
20260509090022 51 286 0.0 4.0 0.00 0.01 0.00 68 1011.9
20260509085508 51 279 0.0 4.0 0.00 0.01 0.00 68 1011.8
20260509085009 51 279 1.0 4.0 0.00 0.01 0.00 68 1011.9
20260509084527 51 279 1.0 3.0 0.00 0.01 0.00 68 1011.9
20260509084011 51 279 0.0 3.0 0.00 0.01 0.00 68 1011.9
20260509083513 52 279 0.0 3.0 0.00 0.01 0.00 68 1011.8
20260509083023 52 279 0.0 3.0 0.00 0.01 0.00 67 1011.8
20260509082510 52 279 1.0 3.0 0.00 0.01 0.00 67 1011.8
20260509082011 52 279 0.0 3.0 0.00 0.01 0.00 67 1011.8
20260509081512 53 281 1.0 3.0 0.00 0.01 0.00 67 1011.9
20260509081010 53 282 0.0 0.0 0.00 0.01 0.00 66 1011.9
20260509080506 53 270 0.0 1.0 0.00 0.01 0.00 66 1012.1
20260509080018 53 275 0.0 2.0 0.00 0.01 0.00 65 1012.1
20260509075507 53 275 0.0 5.0 0.00 0.01 0.00 65 1012.1
20260509075007 53 275 1.0 5.0 0.00 0.01 0.00 65 1012.1
20260509074520 54 275 2.0 5.0 0.00 0.01 0.00 65 1012.1
20260509074008 54 280 0.0 3.0 0.00 0.01 0.00 64 1012.3
20260509073510 54 280 1.0 3.0 0.00 0.01 0.00 64 1012.3
20260509073025 54 286 0.0 2.0 0.00 0.01 0.00 63 1012.2
20260509072510 54 286 0.0 2.0 0.00 0.01 0.00 63 1012.3
20260509072016 54 270 0.0 3.0 0.00 0.01 0.00 63 1012.4
20260509071524 55 270 0.0 4.0 0.00 0.01 0.00 63 1012.5
20260509071012 55 270 0.0 4.0 0.00 0.01 0.00 63 1012.5
20260509070510 55 270 0.0 6.0 0.00 0.01 0.00 62 1012.7
20260509070015 55 270 0.0 6.0 0.00 0.01 0.00 62 1012.7
20260509065505 55 270 3.0 6.0 0.00 0.01 0.00 62 1012.7
20260509065006 55 270 1.0 5.0 0.00 0.01 0.00 63 1012.5
20260509064520 55 270 2.0 5.0 0.00 0.01 0.00 63 1012.4
20260509064010 55 270 0.0 4.0 0.00 0.01 0.00 63 1012.5
20260509063514 55 270 1.0 4.0 0.00 0.01 0.00 63 1012.5
20260509063027 55 270 0.0 3.0 0.00 0.01 0.00 63 1012.5
20260509062510 55 270 0.0 3.0 0.00 0.01 0.00 63 1012.8
20260509062009 55 270 0.0 3.0 0.00 0.01 0.00 63 1012.8
20260509061528 55 270 0.0 3.0 0.00 0.01 0.00 62 1013.1
20260509061007 55 270 0.0 3.0 0.00 0.01 0.00 61 1013.1
20260509060512 55 270 1.0 3.0 0.00 0.01 0.00 63 1013.3
20260509060030 55 270 0.0 3.0 0.00 0.01 0.00 62 1013.3
20260509055511 56 270 0.0 2.0 0.00 0.01 0.01 63 1013.3
20260509055015 56 270 0.0 1.0 0.00 0.01 0.01 61 1013.5
20260509054517 56 270 0.0 2.0 0.00 0.01 0.01 61 1013.6
20260509054009 56 270 0.0 3.0 0.00 0.01 0.01 61 1013.6
20260509053510 56 270 0.0 3.0 0.00 0.01 0.01 61 1013.8
20260509053018 56 270 1.0 3.0 0.00 0.01 0.01 61 1013.8
20260509052507 56 270 0.0 2.0 0.00 0.01 0.01 63 1013.7
20260509052012 56 270 0.0 1.0 0.00 0.01 0.01 62 1013.8